Location: Ar Ranvel
(48.3000°N, 4.8833°W)
Time: 16:05:25
(UTC+00:00)

Aureole 1 Rocket - Pass Details

Date: 16 June 2021
Orbit: 377 x 1372 km, 73.9° (Epoch: 31 July)

Event Time Altitude Azimuth Distance (km) Brightness Sun altitude
Rises 21:25:57 0° 339° (NNW) 3,186 8.3 -8.4°
Reaches altitude 10° 21:28:05 10° 343° (NNW) 2,394 7.3 -8.6°
Maximum altitude 21:33:37 64° 65° (ENE) 1,073 4.2 -9.2°
Enters shadow 21:40:18 12° 145° (SE) 2,899 5.8 -9.9°
